Location: Abraham Lincoln Continuation High School
(33.9711°N, 117.3662°W)
Time: 08:17:43
(UTC+00:00)

Iridium 4 Rocket - Pass Details

Date: 20 January 2021
Orbit: 583 x 906 km, 86.9° (Epoch: 24 February)

Event Time Altitude Azimuth Distance (km) Brightness Sun altitude
Rises 03:44:32 0° 348° (NNW) 3,455 7.0 -32.2°
Reaches altitude 10° 03:47:12 10° 340° (NNW) 2,476 6.3 -32.8°
Maximum altitude 03:52:12 35° 277° (W) 1,281 5.0 -33.8°
Drops below altitude 10° 03:56:49 10° 212° (SSW) 2,282 6.3 -34.8°
Sets 03:59:13 0° 203° (SSW) 3,149 7.0 -35.3°
